Flag for Poland Weather past 2 weeks in Szczecin, Poland

Now
59 °F

Fog.


Feels Like: 59 °F
Forecast: 54 / 74 °F
Wind: No wind

Location: Szczecin Airport

Current Time: Jun 30, 2015 at 1:43:49 AM

Latest Report: Jun 30, 2015 at 1:00 AM


Visibility: 2 mi

Pressure: 30.12 "Hg

Humidity: 94%

Dew point: 57 °F

Location of SzczecinLocation

Historic Weather in Szczecin — Graph

°F

Szczecin temperature yesterday

Maximum temperature yesterday: 73 °F (at 2:30 PM)
Minimum temperature yesterday: 52 °F (at 1:30 AM)
Average temperature yesterday: 63 °F

Past Weeks' High & Low Weather Summary

 TemperatureHumidityPressure
High73 °F (Jun 29, 2:30 PM)100% (Jun 18, 5:30 AM)30.21 "Hg (Jun 18, 5:30 AM)
Low39 °F (Jun 17, 5:00 AM)35% (Jun 17, 4:00 PM)29.59 "Hg (Jun 23, 2:00 AM)
Average57 °F81%29.97 "Hg
* Reported Midnight between Jun 14 and Jun 15 — Jun 30 12:30 AM, Szczecin, Weather by CustomWeather, © 2015

Note: Actual official high and low records may vary slightly from our data, if they occured in-between our weather recording intervals... More about our weather records

Advertising

Szczecin weather history for previous 24 hours

 ConditionsComfort  
Time TempWeatherWind HumidityBarometerVisibility
12:30 AM
Tue, Jun 30
61 °FFog.No wind94%30.12 "Hg4 mi
12:00 AM61 °FClear.No wind94%30.12 "Hg4 mi
11:30 PM
Mon, Jun 29
61 °FClear.2 mph100%30.12 "Hg5 mi
11:00 PM61 °FClear.5 mph100%30.12 "Hg5 mi
10:30 PM63 °FSunny.No wind94%30.12 "Hg10 mi
10:00 PM63 °FPassing clouds.2 mph94%30.12 "HgN/A
9:30 PM64 °FScattered clouds.5 mph88%30.12 "HgN/A
9:00 PM64 °FSprinkles. Scattered clouds.5 mph88%30.12 "HgN/A
8:30 PM68 °FSunny.5 mph69%30.09 "Hg10 mi
8:00 PM70 °FSunny.6 mph64%30.09 "Hg10 mi
7:30 PM70 °FSunny.6 mph64%30.09 "Hg10 mi
7:00 PM72 °FSunny.6 mph57%30.09 "Hg10 mi
6:30 PM73 °FSunny.6 mph53%30.09 "Hg10 mi
6:00 PM73 °FSunny.6 mph53%30.09 "Hg10 mi
5:30 PM73 °FSunny.7 mph53%30.09 "Hg10 mi
5:00 PM72 °FPassing clouds.6 mph57%30.09 "HgN/A
4:30 PM73 °FScattered clouds.6 mph50%30.09 "HgN/A
4:00 PM72 °FScattered clouds.6 mph53%30.09 "HgN/A
3:30 PM73 °FScattered clouds.3 mph53%30.12 "HgN/A
3:00 PM73 °FScattered clouds.7 mph53%30.12 "HgN/A
2:30 PM73 °FScattered clouds.9 mph50%30.12 "HgN/A
2:00 PM72 °FScattered clouds.6 mph50%30.12 "HgN/A
1:30 PM70 °FScattered clouds.7 mph53%30.12 "HgN/A
1:00 PM70 °FPassing clouds.5 mph57%30.12 "HgN/A
12:30 PM70 °FPassing clouds.6 mph60%30.12 "HgN/A
12:00 PM66 °FPassing clouds.3 mph73%30.12 "HgN/A
11:30 AM64 °FSunny.5 mph73%30.12 "Hg10 mi
11:00 AM64 °FSunny.3 mph78%30.12 "Hg10 mi
10:30 AM64 °FSunny.3 mph78%30.15 "Hg10 mi
10:00 AM64 °FSunny.No wind78%30.12 "Hg10 mi
9:30 AM61 °FPassing clouds.3 mph88%30.15 "Hg5 mi
9:00 AM59 °FClear.2 mph94%30.15 "Hg4 mi
8:30 AM57 °FLight rain. Clear.1 mph100%30.15 "Hg4 mi
8:00 AM57 °FLight rain. Fog.3 mph94%30.12 "Hg3 mi
7:30 AM57 °FLight rain. Fog.No wind94%30.15 "Hg3 mi
7:00 AM55 °FLight rain. Fog.2 mph100%30.15 "Hg3 mi
6:30 AM55 °FLight rain. Fog.2 mph94%30.15 "Hg2 mi
6:00 AM55 °FLight rain. Partly sunny.2 mph94%30.12 "Hg4 mi
5:00 AM55 °FPassing clouds.5 mph94%30.12 "HgN/A
4:30 AM55 °FPassing clouds.3 mph94%30.12 "HgN/A
4:00 AM55 °FClear.2 mph94%30.15 "Hg10 mi
3:30 AM54 °FClear.3 mph100%30.12 "Hg10 mi
3:00 AM54 °FClear.3 mph94%30.12 "Hg10 mi
2:30 AM54 °FClear.3 mph94%30.12 "Hg10 mi
2:00 AM54 °FClear.3 mph94%30.12 "Hg10 mi
1:30 AM52 °FClear.3 mph100%30.12 "Hg10 mi
1:00 AM54 °FClear.5 mph94%30.15 "Hg10 mi
Weather by CustomWeather, © 2015

See weather overviewHow to use our weather pages